Regional Weather Roundup
Issued by NWS

Home | Current Version | Previous Version | Graphics & Text | Print | Product List | Glossary On
Versions: 1 2 3 4 5 6 7 8 9 10 11 12 13 14 15 16 17 18 19 20 21 22 23 24 25 26 27 28 29 30 31 32 33 34 35 36 37 38 39 40 41 42 43 44 45 46 47 48 49 50
000
ASUS43 KBIS 171502
RWRND

NORTH DAKOTA REGIONAL WEATHER ROUNDUP
NATIONAL WEATHER SERVICE BISMARCK ND
900 AM CST SUN DEC 17 2017

NOTE: "FAIR" INDICATES FEW OR NO CLOUDS BELOW 12,000 FEET WITH NO
SIGNIFICANT WEATHER AND/OR OBSTRUCTIONS TO VISIBILITY.


NDZ001>003-009>011-017-171600-
NORTHWEST NORTH DAKOTA

CITY           SKY/WX    TMP DP  RH WIND       PRES   REMARKS
WILLISTON      CLEAR     17  15  92 S5        29.93F WCI  10
MINOT          CLEAR     22  16  78 SW13      29.94S WCI  10
MINOT AFB      CLEAR     20  15  81 SW9       29.92F WCI   9
$$

NDZ018>021-031>035-040>046-171600-
SOUTHWEST NORTH DAKOTA

CITY           SKY/WX    TMP DP  RH WIND       PRES   REMARKS
BISMARCK       CLOUDY    18  16  92 CALM      30.02F
DICKINSON      PTCLDY    19  17  92 S12       29.93F WCI   7
GARRISON         N/A     20  18  92 CALM      29.96F
HETTINGER ARPT MOCLDY    14  11  87 CALM      29.99F
$$

NDZ004>008-012>016-024-026-027-054-171600-
NORTHEAST NORTH DAKOTA

CITY           SKY/WX    TMP DP  RH WIND       PRES   REMARKS
GRAND FORKS    PTCLDY    11   9  92 S10       30.00S WCI  -3
GRND FRKS AFB  CLEAR     18  14  86 W10       30.00R WCI   6
DEVILS LAKE    CLEAR     17  14  88 SW6       29.98S WCI   9
$$

NDZ022-023-025-028>030-036>039-047>053-171600-
SOUTHEAST NORTH DAKOTA

CITY           SKY/WX    TMP DP  RH WIND       PRES   REMARKS
FARGO          PTCLDY    22  20  92 SW5       30.05S FOG     WCI  16
JAMESTOWN      PTCLDY    22  20  92 SW9       30.02R WCI  12
$$




USA.gov is the U.S. government's official web portal to all federal, state and local government web resources and services.